SCP
0 0 0 0 0 0 0 0 0 0 0 0 0 0 0 -0 0 -0 0 0 -0 -0 0 0 -0 0 0 0 0 0 0 0 0 0 0 0 0 0 0 0 0 0 0 0
0 0 0 0 0 0 0 0 0 0 0 0 0 0 0 0 -0 0 0 0 0 -0 -0 -0 -0 -0 -0 0 0 0 0 0 -0 0 0 0 0 0 0 0 0 0 0 -0
0 0 0 0 0 0 0 0 0 0 0 0 0 0 0 0 -0 -0 0 0 0 -0 -0 0 -0 0 -0 -0 0 -0 0 0 0 0 0 0 0 0 0 0 0 0 0 0
0 0 0 0 0 0 0 0 0 0 0 0 0 0 0 -0 -0 -0 0 -0 -0 -0 -0 -0 0 0 -0 0 0 0 0 0 0 0 0 -0 0 0 0 0 0 0 0 0
0 0 0 0 0 0 0 0 0 0 0 0 0 0 0 0 -0 -0 -0 -0 -0 0 -0 -0 0 -0 -0 -0 -0 -0 -0 0 0 0 0 -0 0 0 0 0 0 0 0 -0
0 0 0 0 0 0 0 0 0 0 0 0 0 0 0 0 0 0 -0 -0 0 0 -0 0 0 0 0 0 0 -0 0 -0 0 0 -0 0 0 0 0 0 0 0 -0 0
0 0 0 0 0 0 0 0 0 0 0 0 0 0 0 0 0 0 -0 0 0 0 -0 -0 0 -0 -0 0 -0 -0 -0 -0 -0 -0 -0 -0 0 0 0 0 0 -0 -0 0
0 0 0 0 0 0 0 0 0 0 0 0 0 0 0 0 0 0 -0 0 -0 -0 0 0 0 0 0 -0 -0 -0 -0 -0 0 0 0 0 0 0 0 0 1 1 0 0
0 0 0 0 0 0 0 0 0 0 0 0 0 0 0 0 0 0 0 -0 0 0 0 0 0 0 0 -0 -0 -0 -0 -0 -0 0 0 0 0 0 0 0 0 0 0 0
0 0 0 0 0 0 0 0 0 0 0 0 0 0 0 0 0 0 0 0 0 0 -0 -0 0 0 0 -0 -0 -0 -0 0 -0 0 -0 0 0 0 0 0 0 0 0 0
0 0 0 0 0 0 0 0 0 0 0 0 0 0 0 0 0 0 0 0 0 0 0 0 0 0 -0 0 0 0 -0 0 0 0 -0 -0 -0 0 0 0 0 0 0 0
0 0 0 0 0 0 0 0 0 0 0 0 0 0 0 0 0 0 0 0 0 0 0 0 0 0 -0 0 -0 0 0 -0 0 0 0 0 0 0 0 0 0 0 0 0
0 0 0 -0 0 0 0 0 0 0 0 0 0 0 0 0 0 0 0 0 0 0 0 0 0 0 0 -0 -0 -0 -0 0 -0 -0 0 -0 -0 -0 0 0 0 0 0 0
0 0 0 -0 0 0 0 0 0 0 0 0 0 0 0 0 0 0 0 0 0 0 0 0 0 0 0 -0 -0 -0 -0 0 -0 -0 -0 0 -0 0 -0 0 0 0 0 0
0 0 0 -0 -0 0 0 0 0 0 0 0 0 -0 0 -0 0 0 0 0 0 0 0 0 0 0 -0 0 -0 -0 -0 -0 -0 0 0 -0 0 0 -0 0 0 0 0 0
0 0 0 -0 -0 0 0 0 0 0 0 0 0 0 0 0 -0 0 0 0 0 0 0 0 0 0 -0 -0 -0 -0 -0 -0 -0 0 -0 -0 -0 0 0 0 0 0 0 0
0 0 0 0 0 0 0 0 0 0 0 0 0 0 0 -0 -0 -0 0 0 0 0 0 0 0 0 0 -0 -0 -0 -0 -0 -0 0 -0 0 0 0 0 0 0 0 0 0
0 0 0 0 0 0 0 0 0 0 0 0 0 0 0 0 0 0 0 0 0 0 0 0 0 0 0 0 0 0 -0 -0 -0 -0 -0 0 0 0 0 0 0 0 0 0
0 0 0 0 0 0 0 0 0 0 0 0 0 0 0 0 0 0 0 0 0 0 0 0 0 0 0 0 0 0 0 -0 -0 -0 -0 -0 0 0 0 0 0 0 0 0
0 0 0 0 0 0 0 0 0 0 0 0 0 0 0 0 0 0 0 0 0 0 0 0 0 0 0 0 0 0 0 0 -0 -0 -0 0 0 0 0 0 0 0 0 0
0 0 0 0 0 0 0 0 0 0 0 0 0 0 0 0 0 0 0 0 0 0 0 0 0 0 0 0 0 0 0 -0 -0 -0 -0 -0 -0 0 0 0 0 0 0 0
0 0 0 0 0 0 0 0 0 0 0 0 0 0 0 0 0 0 0 0 0 0 0 0 0 0 0 0 0 0 0 0 0 0 0 -0 -0 -0 0 0 0 0 0 0
0 0 0 0 0 0 0 0 0 0 0 0 0 0 0 0 0 0 0 0 0 -0 0 0 0 0 0 -0 0 0 0 -0 -0 0 0 0 -0 -0 0 0 0 0 0 0
0 0 0 0 0 0 0 -0 -0 -0 0 0 0 0 0 0 0 0 0 0 0 0 0 0 0 0 -0 0 0 0 0 0 0 -0 0 0 -0 -0 0 0 0 0 0 0
0 0 0 0 0 -0 -0 0 0 -0 0 0 0 0 0 0 0 0 0 0 0 0 0 0 0 0 0 0 0 0 0 0 0 -0 -0 -0 0 0 0 0 0 0 0 0
0 0 0 0 0 0 -0 -0 0 0 0 0 0 0 0 0 0 0 0 0 0 0 0 0 0 0 0 0 0 0 0 0 0 0 -0 -0 -0 -0 -0 0 0 0 0 0
0 0 0 0 0 0 0 0 0 0 0 0 0 0 0 0 0 0 0 0 0 0 0 0 0 -0 0 -0 0 0 0 0 0 0 0 -0 -0 -0 -0 0 0 0 0 0
Wind_Speed_500mb
60 59 61 69 73 69 53 17 7 8 21 9 5 5 25 45 41 51 27 18 32 19 21 20 15 20 7 20 35 10 9 5 12 23 30 35 37 39 32 19 17 21 11 22
60 62 59 60 66 61 56 34 17 10 13 3 6 16 31 40 26 20 19 13 21 12 13 12 26 13 22 22 19 18 7 6 11 15 12 17 10 16 24 15 30 35 30 29
60 61 58 53 60 49 46 14 7 21 23 38 10 15 16 32 36 34 37 24 22 4 11 22 20 30 7 15 13 43 19 5 16 15 27 17 21 40 31 18 20 25 38 23
62 61 56 52 57 47 30 7 9 21 10 19 25 23 16 32 28 25 38 16 29 32 26 32 17 31 22 27 2 6 3 8 19 29 39 27 28 35 40 29 33 19 33 34
59 60 56 51 57 50 20 16 14 18 32 33 21 13 7 24 28 25 28 24 36 25 26 22 38 31 19 13 13 6 4 9 12 29 37 30 23 29 38 38 45 35 44 15
53 55 57 54 52 51 19 23 21 18 18 17 16 11 16 29 34 20 40 37 32 32 35 46 55 51 50 27 20 23 18 6 8 9 14 19 11 25 32 30 38 38 36 12
52 50 53 56 48 37 30 26 31 12 10 14 23 40 33 32 33 30 47 45 16 31 51 59 61 53 52 35 29 29 21 23 7 9 11 9 2 27 32 29 32 33 32 37
53 49 50 53 49 34 37 22 18 9 8 28 32 39 33 38 38 29 41 31 48 58 43 12 14 8 7 12 24 29 29 12 6 6 7 5 15 8 20 20 19 42 15 23
51 50 49 50 49 41 45 33 14 26 12 12 38 39 30 13 10 16 27 50 52 28 7 5 8 7 8 10 14 10 24 15 6 6 7 5 4 35 54 31 12 31 30 31
48 48 49 48 50 43 43 39 7 22 19 40 25 23 22 10 8 8 23 30 21 29 9 5 4 6 17 10 11 11 2 5 16 12 5 10 29 48 46 11 4 42 29 32
47 47 47 48 48 46 42 49 19 33 24 56 58 39 44 28 11 4 19 22 8 9 11 7 7 5 8 8 6 9 4 6 7 8 2 5 31 38 12 18 45 17 47 48
47 48 50 49 48 48 44 47 12 26 31 44 69 68 49 44 54 31 3 12 16 7 5 6 6 5 4 9 5 9 3 4 5 1 5 9 38 37 41 37 42 48 52 58
54 55 54 53 48 49 49 50 33 22 34 48 13 35 14 17 25 35 12 10 8 4 14 8 5 7 3 4 5 7 16 16 6 3 7 9 10 36 57 64 65 47 48 50
57 56 51 49 47 48 54 51 24 23 15 9 14 17 15 18 29 15 3 22 18 20 20 8 5 6 10 1 4 2 8 11 18 8 13 29 24 45 43 50 47 52 43 42
50 44 42 45 49 51 49 39 22 36 23 9 26 45 20 40 31 17 10 11 9 10 9 6 6 9 6 4 3 6 10 4 6 7 27 21 40 52 51 37 39 48 46 44
43 42 43 49 49 49 16 9 4 19 30 12 7 21 9 34 34 22 23 16 9 9 10 11 10 10 6 5 3 1 8 10 15 11 34 36 46 35 43 41 35 36 45 41
43 43 43 45 42 26 13 4 1 17 25 8 11 10 8 39 28 34 36 30 14 14 10 9 11 9 4 3 2 11 11 16 21 26 30 23 27 38 44 33 33 37 33 37
38 37 38 36 26 9 9 20 15 19 23 11 6 8 13 36 22 12 27 15 17 14 11 8 6 5 2 4 1 22 24 13 22 22 20 31 35 34 35 28 28 35 32 30
33 30 37 23 7 7 9 13 25 38 16 8 7 5 6 13 17 13 14 13 5 11 8 7 5 3 3 10 20 22 18 19 25 27 34 43 35 34 29 27 26 36 36 29
29 18 9 4 6 13 11 7 9 11 13 13 10 27 9 5 9 6 5 8 5 4 9 7 5 5 6 15 8 6 16 19 25 28 39 38 38 34 37 31 32 31 35 35
19 12 9 10 3 9 8 9 13 14 9 16 17 37 17 9 7 5 3 1 7 6 4 6 4 4 11 2 14 13 19 24 22 23 29 34 38 33 42 34 25 26 28 28
27 25 39 27 7 10 8 7 8 11 9 23 11 22 33 8 7 6 1 1 6 7 9 5 1 4 13 12 5 9 10 21 28 33 31 39 34 34 43 29 19 25 27 23
16 5 5 7 7 7 11 10 8 8 9 21 22 6 12 10 8 3 2 3 7 16 6 4 4 11 13 5 9 17 18 28 28 32 34 34 39 36 42 38 23 25 21 19
8 8 8 11 11 11 12 15 13 17 21 9 10 14 11 10 9 6 6 8 2 5 3 6 6 19 28 13 11 13 23 27 24 26 31 37 30 42 37 39 39 40 37 34
10 12 10 13 27 36 39 38 38 38 8 11 5 5 18 6 7 7 4 5 4 9 7 5 9 17 15 15 11 12 17 15 20 24 30 26 35 56 45 36 32 36 41 38
12 17 13 26 25 25 36 34 20 24 23 13 5 0 6 7 6 8 10 8 10 7 7 20 15 8 2 5 8 6 9 7 13 16 23 32 30 43 45 52 39 36 39 34
12 16 28 45 50 42 50 52 41 23 22 8 6 6 9 5 5 6 9 10 8 18 23 17 15 4 25 19 10 6 2 8 9 10 18 25 32 33 47 46 47 38 45 46
Wind_Direction_500mb
354 348 347 354 351 349 359 9 309 280 0 272 131 253 312 301 340 339 321 344 345 13 356 323 318 332 318 343 331 295 336 309 281 263 281 279 285 266 232 228 250 232 243 246
356 354 351 352 355 348 349 339 295 3 337 325 335 314 307 316 316 309 315 327 341 36 15 326 293 312 1 13 6 339 347 272 303 310 235 252 283 327 252 248 238 219 239 245
352 353 354 354 357 348 345 330 320 336 334 360 338 313 306 326 330 313 359 336 321 87 294 308 313 315 343 291 239 279 297 249 255 275 295 325 294 310 321 347 248 233 226 251
355 355 356 357 360 355 348 326 348 14 322 329 334 326 293 322 327 324 344 318 346 337 322 311 296 318 320 321 192 281 196 247 254 272 277 273 270 285 299 307 283 275 234 217
352 355 356 354 1 9 13 341 349 325 298 311 318 321 292 320 329 327 309 323 322 314 301 304 312 304 299 279 266 224 173 262 292 278 264 252 232 266 283 285 282 282 258 234
348 350 354 352 349 3 8 329 324 312 287 317 335 334 326 312 315 316 323 306 317 309 295 293 291 290 279 248 250 262 261 262 295 295 137 120 301 259 263 271 265 263 265 163
344 346 347 350 347 347 345 337 316 294 286 324 314 316 309 327 325 301 295 302 320 300 319 311 295 281 262 248 237 214 246 250 263 267 182 217 355 331 329 304 276 302 272 149
338 339 341 345 348 341 340 343 299 280 272 308 303 325 322 318 319 316 312 329 323 318 317 306 322 333 298 247 216 198 219 214 257 260 241 325 329 41 345 339 6 358 89 101
330 333 337 337 343 336 334 339 248 278 287 246 324 314 303 314 318 321 315 327 325 329 278 305 304 354 337 328 9 311 229 156 198 312 314 180 62 323 330 313 50 352 13 57
322 326 330 333 334 332 329 331 267 274 259 281 278 300 311 297 280 280 306 338 329 350 325 308 304 339 358 352 7 343 311 143 237 260 281 332 343 330 318 109 331 323 31 32
319 320 324 330 333 331 328 324 292 248 267 282 283 285 280 306 255 261 317 325 356 327 2 332 339 347 354 323 0 347 43 279 342 319 96 122 347 340 46 317 311 321 35 11
317 318 318 321 326 326 327 310 305 272 270 266 291 291 282 266 255 267 261 287 300 322 350 339 310 312 319 290 1 330 14 339 304 65 290 359 24 1 338 328 334 18 22 9
311 311 312 314 317 321 319 302 303 265 274 299 311 317 320 255 247 253 207 256 298 314 353 308 291 288 342 342 32 311 336 5 8 168 357 132 44 6 354 350 353 3 9 4
310 309 309 310 312 315 315 302 294 238 269 274 272 321 335 283 241 250 276 245 287 296 294 257 274 275 206 357 300 197 346 333 323 301 10 341 353 352 339 327 352 8 358 352
317 320 317 312 312 312 311 301 274 208 228 289 298 317 334 225 234 246 249 254 294 326 294 228 243 258 350 138 285 41 4 12 331 300 318 325 319 326 327 354 355 354 352 342
322 322 314 311 313 313 315 311 352 195 223 290 297 288 237 216 234 237 238 239 222 252 281 271 268 274 297 342 70 58 52 342 298 283 310 310 309 326 334 347 349 337 325 325
318 317 309 309 313 303 202 215 40 174 205 264 280 282 268 223 218 232 235 227 222 235 263 245 261 263 38 33 309 285 341 285 309 319 311 331 328 319 339 339 325 308 306 313
317 315 305 309 306 301 232 231 254 189 209 249 270 276 287 198 201 232 210 207 220 229 248 255 245 317 226 237 201 312 330 357 0 342 327 322 338 341 331 320 312 319 309 309
318 315 304 300 231 248 236 244 201 193 226 271 233 252 265 173 217 211 198 218 233 239 214 225 201 228 240 257 289 284 53 24 10 11 359 349 346 340 335 332 323 326 324 313
331 337 345 177 13 336 302 228 193 213 214 231 254 222 259 268 33 243 212 217 243 260 226 221 192 208 287 267 239 80 21 30 29 25 8 2 352 344 344 331 318 312 311 320
7 339 288 282 282 306 244 229 192 183 222 220 239 220 226 240 171 205 91 320 286 267 247 190 223 165 201 94 47 83 9 15 24 16 356 2 359 352 345 324 305 305 306 309
312 292 285 297 247 238 256 221 220 197 235 184 212 215 204 138 115 83 53 225 330 273 339 278 107 124 138 117 28 28 74 47 23 12 11 9 4 3 353 350 332 321 303 292
324 273 259 227 227 234 225 224 213 212 207 190 191 121 128 110 94 85 144 185 239 300 3 277 45 118 166 157 80 39 54 28 26 18 7 12 18 20 6 23 35 42 31 347
271 234 243 209 208 226 212 249 268 323 293 133 153 141 132 147 174 153 197 228 65 329 273 246 153 152 196 139 94 59 49 34 30 19 25 33 28 14 15 27 41 48 47 55
270 240 239 228 232 269 276 268 274 285 193 172 233 147 154 144 188 189 205 232 227 195 231 232 246 155 123 126 121 77 59 19 33 40 35 37 30 29 28 27 34 48 50 53
243 240 272 290 289 283 295 310 320 336 359 335 88 133 159 186 191 170 198 162 220 239 209 234 257 106 28 179 128 89 78 52 50 52 45 51 48 41 42 40 49 44 40 39
239 247 257 265 275 278 279 286 290 284 289 200 122 288 214 205 174 195 153 199 217 234 245 231 195 184 199 205 169 137 94 143 91 82 59 55 47 36 36 39 34 47 50 39
Wind_Speed_850mb
60 59 61 69 73 69 53 17 7 8 21 9 5 5 25 45 41 51 27 18 32 19 21 20 15 20 7 20 35 10 9 5 12 23 30 35 37 39 32 19 17 21 11 22
60 62 59 60 66 61 56 34 17 10 13 3 6 16 31 40 26 20 19 13 21 12 13 12 26 13 22 22 19 18 7 6 11 15 12 17 10 16 24 15 30 35 30 29
60 61 58 53 60 49 46 14 7 21 23 38 10 15 16 32 36 34 37 24 22 4 11 22 20 30 7 15 13 43 19 5 16 15 27 17 21 40 31 18 20 25 38 23
62 61 56 52 57 47 30 7 9 21 10 19 25 23 16 32 28 25 38 16 29 32 26 32 17 31 22 27 2 6 3 8 19 29 39 27 28 35 40 29 33 19 33 34
59 60 56 51 57 50 20 16 14 18 32 33 21 13 7 24 28 25 28 24 36 25 26 22 38 31 19 13 13 6 4 9 12 29 37 30 23 29 38 38 45 35 44 15
53 55 57 54 52 51 19 23 21 18 18 17 16 11 16 29 34 20 40 37 32 32 35 46 55 51 50 27 20 23 18 6 8 9 14 19 11 25 32 30 38 38 36 12
52 50 53 56 48 37 30 26 31 12 10 14 23 40 33 32 33 30 47 45 16 31 51 59 61 53 52 35 29 29 21 23 7 9 11 9 2 27 32 29 32 33 32 37
53 49 50 53 49 34 37 22 18 9 8 28 32 39 33 38 38 29 41 31 48 58 43 12 14 8 7 12 24 29 29 12 6 6 7 5 15 8 20 20 19 42 15 23
51 50 49 50 49 41 45 33 14 26 12 12 38 39 30 13 10 16 27 50 52 28 7 5 8 7 8 10 14 10 24 15 6 6 7 5 4 35 54 31 12 31 30 31
48 48 49 48 50 43 43 39 7 22 19 40 25 23 22 10 8 8 23 30 21 29 9 5 4 6 17 10 11 11 2 5 16 12 5 10 29 48 46 11 4 42 29 32
47 47 47 48 48 46 42 49 19 33 24 56 58 39 44 28 11 4 19 22 8 9 11 7 7 5 8 8 6 9 4 6 7 8 2 5 31 38 12 18 45 17 47 48
47 48 50 49 48 48 44 47 12 26 31 44 69 68 49 44 54 31 3 12 16 7 5 6 6 5 4 9 5 9 3 4 5 1 5 9 38 37 41 37 42 48 52 58
54 55 54 53 48 49 49 50 33 22 34 48 13 35 14 17 25 35 12 10 8 4 14 8 5 7 3 4 5 7 16 16 6 3 7 9 10 36 57 64 65 47 48 50
57 56 51 49 47 48 54 51 24 23 15 9 14 17 15 18 29 15 3 22 18 20 20 8 5 6 10 1 4 2 8 11 18 8 13 29 24 45 43 50 47 52 43 42
50 44 42 45 49 51 49 39 22 36 23 9 26 45 20 40 31 17 10 11 9 10 9 6 6 9 6 4 3 6 10 4 6 7 27 21 40 52 51 37 39 48 46 44
43 42 43 49 49 49 16 9 4 19 30 12 7 21 9 34 34 22 23 16 9 9 10 11 10 10 6 5 3 1 8 10 15 11 34 36 46 35 43 41 35 36 45 41
43 43 43 45 42 26 13 4 1 17 25 8 11 10 8 39 28 34 36 30 14 14 10 9 11 9 4 3 2 11 11 16 21 26 30 23 27 38 44 33 33 37 33 37
38 37 38 36 26 9 9 20 15 19 23 11 6 8 13 36 22 12 27 15 17 14 11 8 6 5 2 4 1 22 24 13 22 22 20 31 35 34 35 28 28 35 32 30
33 30 37 23 7 7 9 13 25 38 16 8 7 5 6 13 17 13 14 13 5 11 8 7 5 3 3 10 20 22 18 19 25 27 34 43 35 34 29 27 26 36 36 29
29 18 9 4 6 13 11 7 9 11 13 13 10 27 9 5 9 6 5 8 5 4 9 7 5 5 6 15 8 6 16 19 25 28 39 38 38 34 37 31 32 31 35 35
19 12 9 10 3 9 8 9 13 14 9 16 17 37 17 9 7 5 3 1 7 6 4 6 4 4 11 2 14 13 19 24 22 23 29 34 38 33 42 34 25 26 28 28
27 25 39 27 7 10 8 7 8 11 9 23 11 22 33 8 7 6 1 1 6 7 9 5 1 4 13 12 5 9 10 21 28 33 31 39 34 34 43 29 19 25 27 23
16 5 5 7 7 7 11 10 8 8 9 21 22 6 12 10 8 3 2 3 7 16 6 4 4 11 13 5 9 17 18 28 28 32 34 34 39 36 42 38 23 25 21 19
8 8 8 11 11 11 12 15 13 17 21 9 10 14 11 10 9 6 6 8 2 5 3 6 6 19 28 13 11 13 23 27 24 26 31 37 30 42 37 39 39 40 37 34
10 12 10 13 27 36 39 38 38 38 8 11 5 5 18 6 7 7 4 5 4 9 7 5 9 17 15 15 11 12 17 15 20 24 30 26 35 56 45 36 32 36 41 38
12 17 13 26 25 25 36 34 20 24 23 13 5 0 6 7 6 8 10 8 10 7 7 20 15 8 2 5 8 6 9 7 13 16 23 32 30 43 45 52 39 36 39 34
12 16 28 45 50 42 50 52 41 23 22 8 6 6 9 5 5 6 9 10 8 18 23 17 15 4 25 19 10 6 2 8 9 10 18 25 32 33 47 46 47 38 45 46
Wind_Direction_850mb
354 348 347 354 351 349 359 9 309 280 0 272 131 253 312 301 340 339 321 344 345 13 356 323 318 332 318 343 331 295 336 309 281 263 281 279 285 266 232 228 250 232 243 246
356 354 351 352 355 348 349 339 295 3 337 325 335 314 307 316 316 309 315 327 341 36 15 326 293 312 1 13 6 339 347 272 303 310 235 252 283 327 252 248 238 219 239 245
352 353 354 354 357 348 345 330 320 336 334 360 338 313 306 326 330 313 359 336 321 87 294 308 313 315 343 291 239 279 297 249 255 275 295 325 294 310 321 347 248 233 226 251
355 355 356 357 360 355 348 326 348 14 322 329 334 326 293 322 327 324 344 318 346 337 322 311 296 318 320 321 192 281 196 247 254 272 277 273 270 285 299 307 283 275 234 217
352 355 356 354 1 9 13 341 349 325 298 311 318 321 292 320 329 327 309 323 322 314 301 304 312 304 299 279 266 224 173 262 292 278 264 252 232 266 283 285 282 282 258 234
348 350 354 352 349 3 8 329 324 312 287 317 335 334 326 312 315 316 323 306 317 309 295 293 291 290 279 248 250 262 261 262 295 295 137 120 301 259 263 271 265 263 265 163
344 346 347 350 347 347 345 337 316 294 286 324 314 316 309 327 325 301 295 302 320 300 319 311 295 281 262 248 237 214 246 250 263 267 182 217 355 331 329 304 276 302 272 149
338 339 341 345 348 341 340 343 299 280 272 308 303 325 322 318 319 316 312 329 323 318 317 306 322 333 298 247 216 198 219 214 257 260 241 325 329 41 345 339 6 358 89 101
330 333 337 337 343 336 334 339 248 278 287 246 324 314 303 314 318 321 315 327 325 329 278 305 304 354 337 328 9 311 229 156 198 312 314 180 62 323 330 313 50 352 13 57
322 326 330 333 334 332 329 331 267 274 259 281 278 300 311 297 280 280 306 338 329 350 325 308 304 339 358 352 7 343 311 143 237 260 281 332 343 330 318 109 331 323 31 32
319 320 324 330 333 331 328 324 292 248 267 282 283 285 280 306 255 261 317 325 356 327 2 332 339 347 354 323 0 347 43 279 342 319 96 122 347 340 46 317 311 321 35 11
317 318 318 321 326 326 327 310 305 272 270 266 291 291 282 266 255 267 261 287 300 322 350 339 310 312 319 290 1 330 14 339 304 65 290 359 24 1 338 328 334 18 22 9
311 311 312 314 317 321 319 302 303 265 274 299 311 317 320 255 247 253 207 256 298 314 353 308 291 288 342 342 32 311 336 5 8 168 357 132 44 6 354 350 353 3 9 4
310 309 309 310 312 315 315 302 294 238 269 274 272 321 335 283 241 250 276 245 287 296 294 257 274 275 206 357 300 197 346 333 323 301 10 341 353 352 339 327 352 8 358 352
317 320 317 312 312 312 311 301 274 208 228 289 298 317 334 225 234 246 249 254 294 326 294 228 243 258 350 138 285 41 4 12 331 300 318 325 319 326 327 354 355 354 352 342
322 322 314 311 313 313 315 311 352 195 223 290 297 288 237 216 234 237 238 239 222 252 281 271 268 274 297 342 70 58 52 342 298 283 310 310 309 326 334 347 349 337 325 325
318 317 309 309 313 303 202 215 40 174 205 264 280 282 268 223 218 232 235 227 222 235 263 245 261 263 38 33 309 285 341 285 309 319 311 331 328 319 339 339 325 308 306 313
317 315 305 309 306 301 232 231 254 189 209 249 270 276 287 198 201 232 210 207 220 229 248 255 245 317 226 237 201 312 330 357 0 342 327 322 338 341 331 320 312 319 309 309
318 315 304 300 231 248 236 244 201 193 226 271 233 252 265 173 217 211 198 218 233 239 214 225 201 228 240 257 289 284 53 24 10 11 359 349 346 340 335 332 323 326 324 313
331 337 345 177 13 336 302 228 193 213 214 231 254 222 259 268 33 243 212 217 243 260 226 221 192 208 287 267 239 80 21 30 29 25 8 2 352 344 344 331 318 312 311 320
7 339 288 282 282 306 244 229 192 183 222 220 239 220 226 240 171 205 91 320 286 267 247 190 223 165 201 94 47 83 9 15 24 16 356 2 359 352 345 324 305 305 306 309
312 292 285 297 247 238 256 221 220 197 235 184 212 215 204 138 115 83 53 225 330 273 339 278 107 124 138 117 28 28 74 47 23 12 11 9 4 3 353 350 332 321 303 292
324 273 259 227 227 234 225 224 213 212 207 190 191 121 128 110 94 85 144 185 239 300 3 277 45 118 166 157 80 39 54 28 26 18 7 12 18 20 6 23 35 42 31 347
271 234 243 209 208 226 212 249 268 323 293 133 153 141 132 147 174 153 197 228 65 329 273 246 153 152 196 139 94 59 49 34 30 19 25 33 28 14 15 27 41 48 47 55
270 240 239 228 232 269 276 268 274 285 193 172 233 147 154 144 188 189 205 232 227 195 231 232 246 155 123 126 121 77 59 19 33 40 35 37 30 29 28 27 34 48 50 53
243 240 272 290 289 283 295 310 320 336 359 335 88 133 159 186 191 170 198 162 220 239 209 234 257 106 28 179 128 89 78 52 50 52 45 51 48 41 42 40 49 44 40 39
239 247 257 265 275 278 279 286 290 284 289 200 122 288 214 205 174 195 153 199 217 234 245 231 195 184 199 205 169 137 94 143 91 82 59 55 47 36 36 39 34 47 50 39